QPF
0.00 0.01 0.02 0.03 0.01 0.00 0.00 0.00 0.00 0.00 0.00 0.00 0.00 0.00 0.00 0.00 0.00 0.00 0.00 0.00 0.00 0.00 0.00 0.00 0.00 0.00 0.00 0.00 0.00 0.00 0.00 0.00 0.00 0.00 0.00 0.00 0.00 0.00 0.00 0.00 0.00 0.00 0.00 0.00 0.00 0.00 0.00 0.00 0.00
0.00 0.00 0.01 0.01 0.01 0.00 0.00 0.00 0.00 0.00 0.00 0.00 0.00 0.00 0.00 0.00 0.00 0.00 0.00 0.00 0.00 0.00 0.00 0.00 0.00 0.00 0.00 0.00 0.00 0.00 0.00 0.00 0.00 0.00 0.00 0.00 0.00 0.00 0.00 0.00 0.00 0.00 0.00 0.00 0.00 0.00 0.00 0.00 0.00
0.00 0.00 0.00 0.00 0.00 0.00 0.00 0.00 0.00 0.00 0.00 0.00 0.00 0.00 0.00 0.00 0.00 0.00 0.00 0.00 0.00 0.00 0.00 0.00 0.00 0.00 0.00 0.00 0.00 0.00 0.00 0.00 0.00 0.00 0.00 0.00 0.00 0.00 0.00 0.00 0.00 0.00 0.00 0.00 0.00 0.00 0.00 0.00 0.00
0.00 0.00 0.00 0.00 0.00 0.01 0.01 0.00 0.00 0.00 0.00 0.00 0.00 0.00 0.00 0.00 0.00 0.00 0.00 0.00 0.00 0.00 0.00 0.00 0.00 0.00 0.00 0.00 0.00 0.00 0.00 0.00 0.00 0.00 0.00 0.00 0.00 0.00 0.00 0.00 0.00 0.00 0.00 0.00 0.00 0.00 0.00 0.00 0.00
0.00 0.00 0.00 0.00 0.00 0.01 0.01 0.01 0.01 0.00 0.00 0.00 0.00 0.00 0.00 0.00 0.00 0.00 0.00 0.00 0.00 0.00 0.00 0.00 0.00 0.00 0.00 0.00 0.00 0.00 0.00 0.00 0.00 0.00 0.00 0.00 0.00 0.00 0.00 0.00 0.00 0.00 0.00 0.00 0.00 0.00 0.00 0.00 0.00
0.00 0.00 0.00 0.00 0.00 0.01 0.01 0.01 0.01 0.00 0.00 0.00 0.00 0.00 0.00 0.00 0.00 0.00 0.00 0.00 0.00 0.00 0.00 0.00 0.00 0.00 0.00 0.00 0.00 0.00 0.00 0.00 0.00 0.00 0.00 0.00 0.00 0.00 0.00 0.00 0.00 0.00 0.00 0.00 0.00 0.00 0.00 0.00 0.00
0.00 0.00 0.00 0.00 0.00 0.00 0.00 0.01 0.01 0.00 0.00 0.00 0.00 0.00 0.00 0.00 0.00 0.00 0.00 0.00 0.00 0.00 0.00 0.00 0.00 0.00 0.00 0.00 0.00 0.00 0.00 0.00 0.00 0.00 0.00 0.00 0.00 0.00 0.00 0.00 0.00 0.00 0.00 0.00 0.00 0.00 0.00 0.00 0.00
0.00 0.00 0.00 0.00 0.00 0.00 0.00 0.00 0.00 0.00 0.00 0.00 0.00 0.00 0.00 0.00 0.00 0.00 0.00 0.00 0.00 0.00 0.00 0.00 0.00 0.00 0.00 0.00 0.00 0.00 0.00 0.00 0.00 0.00 0.00 0.00 0.00 0.00 0.00 0.00 0.00 0.00 0.00 0.00 0.00 0.00 0.00 0.00 0.00
0.00 0.00 0.00 0.00 0.00 0.00 0.00 0.00 0.00 0.00 0.00 0.00 0.00 0.00 0.00 0.00 0.00 0.00 0.00 0.00 0.00 0.00 0.00 0.00 0.00 0.00 0.00 0.00 0.00 0.00 0.00 0.00 0.00 0.00 0.00 0.00 0.00 0.00 0.00 0.00 0.00 0.00 0.00 0.00 0.00 0.00 0.00 0.00 0.00
0.00 0.00 0.00 0.00 0.00 0.00 0.00 0.00 0.00 0.00 0.00 0.00 0.00 0.00 0.00 0.00 0.00 0.00 0.00 0.00 0.00 0.00 0.00 0.00 0.00 0.00 0.00 0.00 0.00 0.00 0.00 0.00 0.00 0.00 0.00 0.00 0.00 0.00 0.00 0.00 0.00 0.00 0.00 0.00 0.00 0.00 0.00 0.00 0.00
0.00 0.00 0.00 0.00 0.00 0.00 0.00 0.00 0.00 0.00 0.00 0.00 0.00 0.00 0.00 0.00 0.00 0.00 0.00 0.00 0.00 0.00 0.00 0.00 0.00 0.00 0.00 0.00 0.00 0.00 0.00 0.00 0.00 0.00 0.00 0.00 0.00 0.00 0.00 0.00 0.00 0.00 0.00 0.00 0.00 0.01 0.01 0.01 0.01
0.00 0.00 0.00 0.00 0.00 0.00 0.00 0.00 0.00 0.00 0.00 0.00 0.00 0.00 0.00 0.00 0.00 0.00 0.00 0.00 0.00 0.00 0.00 0.00 0.00 0.00 0.00 0.00 0.00 0.00 0.00 0.00 0.00 0.00 0.00 0.00 0.00 0.00 0.00 0.00 0.00 0.00 0.00 0.00 0.00 0.01 0.01 0.02 0.02
0.00 0.00 0.00 0.00 0.00 0.00 0.00 0.00 0.00 0.00 0.00 0.00 0.00 0.00 0.00 0.00 0.00 0.00 0.00 0.00 0.00 0.00 0.01 0.01 0.02 0.02 0.03 0.03 0.02 0.02 0.01 0.00 0.00 0.00 0.00 0.00 0.00 0.01 0.01 0.01 0.01 0.01 0.01 0.01 0.03 0.05 0.06 0.06 0.05
0.00 0.00 0.00 0.00 0.00 0.00 0.00 0.00 0.00 0.00 0.00 0.00 0.00 0.00 0.00 0.00 0.00 0.00 0.00 0.00 0.00 0.01 0.01 0.03 0.04 0.07 0.10 0.09 0.07 0.06 0.05 0.04 0.02 0.03 0.03 0.03 0.02 0.04 0.05 0.05 0.05 0.05 0.06 0.07 0.10 0.13 0.16 0.15 0.14
0.00 0.00 0.00 0.00 0.00 0.00 0.00 0.00 0.00 0.00 0.00 0.00 0.00 0.00 0.00 0.00 0.00 0.00 0.00 0.01 0.01 0.02 0.03 0.06 0.11 0.19 0.19 0.15 0.12 0.11 0.12 0.11 0.10 0.12 0.14 0.14 0.12 0.13 0.16 0.14 0.12 0.16 0.20 0.23 0.25 0.28 0.29 0.25 0.23
0.00 0.00 0.00 0.00 0.00 0.00 0.00 0.00 0.00 0.00 0.00 0.00 0.00 0.00 0.00 0.00 0.00 0.01 0.01 0.01 0.02 0.04 0.06 0.10 0.20 0.25 0.23 0.22 0.21 0.18 0.18 0.18 0.19 0.21 0.20 0.21 0.23 0.25 0.25 0.20 0.19 0.31 0.37 0.41 0.43 0.40 0.36 0.32 0.28
0.00 0.00 0.00 0.00 0.00 0.00 0.00 0.00 0.00 0.00 0.00 0.00 0.00 0.00 0.00 0.00 0.01 0.01 0.01 0.02 0.03 0.05 0.09 0.18 0.26 0.30 0.28 0.20 0.15 0.18 0.23 0.24 0.22 0.23 0.21 0.24 0.30 0.33 0.33 0.22 0.19 0.40 0.49 0.49 0.52 0.49 0.48 0.42 0.35
0.00 0.00 0.00 0.00 0.00 0.00 0.00 0.00 0.00 0.00 0.00 0.00 0.00 0.00 0.00 0.01 0.01 0.02 0.03 0.03 0.04 0.06 0.09 0.12 0.12 0.14 0.16 0.14 0.14 0.15 0.17 0.18 0.18 0.19 0.17 0.18 0.20 0.29 0.34 0.19 0.22 0.41 0.47 0.45 0.50 0.53 0.53 0.44 0.38
0.00 0.00 0.00 0.00 0.00 0.00 0.00 0.00 0.00 0.00 0.00 0.00 0.00 0.00 0.01 0.01 0.02 0.03 0.04 0.05 0.04 0.04 0.06 0.08 0.06 0.07 0.08 0.10 0.12 0.10 0.06 0.06 0.07 0.07 0.07 0.08 0.10 0.14 0.22 0.18 0.19 0.29 0.31 0.33 0.40 0.42 0.40 0.33 0.38
0.00 0.00 0.00 0.00 0.00 0.00 0.00 0.00 0.00 0.00 0.00 0.00 0.01 0.01 0.02 0.02 0.03 0.05 0.06 0.04 0.04 0.04 0.04 0.03 0.01 0.01 0.02 0.02 0.02 0.02 0.02 0.01 0.01 0.02 0.04 0.04 0.06 0.09 0.13 0.13 0.13 0.17 0.20 0.18 0.21 0.31 0.32 0.22 0.33
0.00 0.00 0.00 0.00 0.00 0.00 0.00 0.00 0.00 0.00 0.00 0.01 0.01 0.02 0.02 0.03 0.04 0.04 0.04 0.02 0.01 0.00 0.00 0.00 0.00 0.00 0.00 0.00 0.00 0.00 0.00 0.00 0.00 0.01 0.01 0.01 0.02 0.03 0.06 0.07 0.07 0.10 0.14 0.12 0.13 0.23 0.28 0.19 0.20
0.00 0.00 0.00 0.00 0.00 0.00 0.00 0.00 0.00 0.00 0.01 0.01 0.02 0.02 0.03 0.03 0.03 0.03 0.02 0.01 0.00 0.00 0.00 0.00 0.00 0.00 0.00 0.00 0.00 0.00 0.00 0.00 0.00 0.00 0.00 0.00 0.01 0.01 0.02 0.02 0.03 0.04 0.06 0.06 0.07 0.13 0.16 0.18 0.14
0.00 0.00 0.00 0.00 0.00 0.00 0.00 0.00 0.00 0.00 0.01 0.02 0.02 0.02 0.02 0.02 0.02 0.01 0.01 0.00 0.00 0.00 0.00 0.00 0.00 0.00 0.00 0.00 0.00 0.00 0.00 0.00 0.00 0.00 0.00 0.00 0.00 0.00 0.00 0.01 0.01 0.02 0.02 0.03 0.04 0.05 0.07 0.07 0.07
0.00 0.00 0.00 0.00 0.00 0.00 0.00 0.00 0.00 0.00 0.00 0.00 0.01 0.01 0.01 0.01 0.01 0.00 0.00 0.00 0.00 0.00 0.00 0.00 0.00 0.00 0.00 0.00 0.00 0.00 0.00 0.00 0.00 0.00 0.00 0.00 0.00 0.00 0.00 0.00 0.00 0.01 0.01 0.02 0.02 0.03 0.02 0.02 0.02
0.00 0.00 0.00 0.00 0.00 0.00 0.00 0.00 0.00 0.00 0.00 0.00 0.00 0.00 0.00 0.00 0.00 0.00 0.00 0.00 0.00 0.00 0.00 0.00 0.00 0.00 0.00 0.00 0.00 0.00 0.00 0.00 0.00 0.00 0.00 0.00 0.00 0.00 0.00 0.00 0.00 0.00 0.00 0.01 0.01 0.01 0.01 0.01 0.01
0.00 0.00 0.00 0.00 0.00 0.00 0.00 0.00 0.00 0.00 0.00 0.00 0.00 0.00 0.00 0.00 0.00 0.00 0.00 0.00 0.00 0.00 0.00 0.00 0.00 0.00 0.00 0.00 0.00 0.00 0.00 0.00 0.00 0.00 0.00 0.00 0.00 0.00 0.00 0.00 0.00 0.00 0.00 0.01 0.01 0.01 0.01 0.01 0.01
0.00 0.00 0.00 0.00 0.00 0.00 0.00 0.00 0.00 0.00 0.00 0.00 0.00 0.00 0.00 0.00 0.00 0.00 0.00 0.00 0.00 0.00 0.00 0.00 0.00 0.00 0.00 0.00 0.00 0.00 0.00 0.00 0.00 0.00 0.00 0.00 0.00 0.00 0.00 0.00 0.00 0.00 0.01 0.02 0.02 0.02 0.01 0.01 0.02
0.00 0.00 0.00 0.00 0.00 0.00 0.00 0.00 0.00 0.00 0.00 0.00 0.00 0.00 0.00 0.00 0.00 0.00 0.00 0.00 0.00 0.00 0.00 0.00 0.00 0.00 0.00 0.00 0.00 0.00 0.00 0.00 0.00 0.00 0.00 0.00 0.00 0.00 0.00 0.00 0.01 0.01 0.02 0.03 0.04 0.03 0.03 0.03 0.03
0.00 0.00 0.00 0.00 0.00 0.00 0.00 0.00 0.00 0.00 0.00 0.00 0.00 0.00 0.00 0.00 0.00 0.00 0.00 0.00 0.00 0.00 0.00 0.00 0.00 0.00 0.00 0.00 0.00 0.00 0.00 0.00 0.00 0.00 0.00 0.00 0.00 0.00 0.00 0.00 0.01 0.02 0.04 0.06 0.08 0.07 0.07 0.07 0.09
0.00 0.00 0.00 0.00 0.00 0.00 0.00 0.00 0.00 0.00 0.00 0.00 0.00 0.00 0.00 0.00 0.00 0.00 0.00 0.00 0.00 0.00 0.00 0.00 0.00 0.00 0.00 0.00 0.00 0.00 0.00 0.00 0.00 0.00 0.00 0.00 0.00 0.00 0.00 0.01 0.01 0.02 0.05 0.08 0.12 0.15 0.15 0.16 0.16
MSLP
1009.43 1010.45 1011.55 1012.52 1013.21 1013.50 1013.39 1012.95 1012.31 1011.65 1011.14 1010.86 1010.86 1011.06 1011.38 1011.68 1011.85 1011.83 1011.63 1011.31 1011.00 1010.79 1010.76 1010.96 1011.36 1011.88 1012.43 1012.90 1013.24 1013.44 1013.51 1013.51 1013.52 1013.58 1013.74 1013.98 1014.28 1014.58 1014.85 1015.03 1015.14 1015.18 1015.18 1015.19 1015.21 1015.28 1015.37 1015.49 1015.60
1009.84 1010.99 1012.13 1013.07 1013.62 1013.73 1013.38 1012.69 1011.82 1010.98 1010.32 1009.96 1009.91 1010.11 1010.46 1010.82 1011.06 1011.14 1011.04 1010.85 1010.65 1010.56 1010.65 1010.94 1011.41 1011.97 1012.54 1013.03 1013.38 1013.58 1013.67 1013.69 1013.72 1013.80 1013.97 1014.20 1014.48 1014.74 1014.96 1015.10 1015.17 1015.18 1015.18 1015.19 1015.24 1015.33 1015.45 1015.59 1015.71
1010.34 1011.57 1012.71 1013.55 1013.95 1013.85 1013.29 1012.39 1011.36 1010.39 1009.65 1009.25 1009.20 1009.43 1009.81 1010.22 1010.52 1010.66 1010.64 1010.53 1010.43 1010.43 1010.59 1010.95 1011.46 1012.05 1012.63 1013.11 1013.46 1013.67 1013.77 1013.81 1013.86 1013.97 1014.14 1014.37 1014.62 1014.84 1015.01 1015.10 1015.13 1015.12 1015.12 1015.14 1015.22 1015.34 1015.49 1015.65 1015.79
1010.92 1012.16 1013.23 1013.94 1014.16 1013.87 1013.14 1012.10 1010.97 1009.95 1009.21 1008.83 1008.81 1009.08 1009.50 1009.93 1010.26 1010.43 1010.46 1010.40 1010.35 1010.41 1010.62 1011.00 1011.52 1012.11 1012.67 1013.13 1013.47 1013.67 1013.78 1013.85 1013.93 1014.06 1014.25 1014.47 1014.70 1014.89 1015.01 1015.06 1015.06 1015.04 1015.03 1015.07 1015.17 1015.32 1015.51 1015.69 1015.83
1011.52 1012.71 1013.67 1014.21 1014.26 1013.81 1012.94 1011.83 1010.67 1009.68 1009.00 1008.69 1008.74 1009.05 1009.49 1009.94 1010.27 1010.44 1010.48 1010.44 1010.42 1010.49 1010.72 1011.10 1011.60 1012.15 1012.67 1013.10 1013.40 1013.59 1013.70 1013.79 1013.89 1014.05 1014.26 1014.49 1014.71 1014.88 1014.97 1015.00 1014.98 1014.95 1014.95 1015.00 1015.12 1015.30 1015.50 1015.68 1015.83
1012.10 1013.18 1013.97 1014.33 1014.21 1013.63 1012.69 1011.56 1010.45 1009.55 1008.97 1008.76 1008.89 1009.25 1009.71 1010.15 1010.47 1010.63 1010.65 1010.61 1010.59 1010.67 1010.89 1011.25 1011.71 1012.20 1012.65 1013.01 1013.27 1013.43 1013.53 1013.63 1013.76 1013.95 1014.18 1014.43 1014.66 1014.82 1014.91 1014.93 1014.90 1014.87 1014.88 1014.94 1015.07 1015.25 1015.45 1015.63 1015.77
1012.57 1013.49 1014.09 1014.28 1014.00 1013.32 1012.35 1011.26 1010.24 1009.46 1009.02 1008.92 1009.13 1009.54 1010.01 1010.44 1010.73 1010.87 1010.88 1010.84 1010.82 1010.89 1011.10 1011.42 1011.83 1012.25 1012.62 1012.91 1013.10 1013.22 1013.31 1013.41 1013.56 1013.78 1014.04 1014.31 1014.56 1014.74 1014.83 1014.85 1014.83 1014.80 1014.80 1014.87 1014.99 1015.16 1015.34 1015.50 1015.61
1012.89 1013.63 1014.03 1014.03 1013.62 1012.87 1011.90 1010.89 1009.99 1009.35 1009.04 1009.05 1009.33 1009.77 1010.25 1010.66 1010.93 1011.06 1011.07 1011.04 1011.04 1011.12 1011.31 1011.60 1011.95 1012.30 1012.59 1012.80 1012.93 1013.00 1013.06 1013.16 1013.33 1013.57 1013.86 1014.16 1014.42 1014.62 1014.73 1014.75 1014.73 1014.70 1014.70 1014.76 1014.86 1015.01 1015.16 1015.28 1015.36
1013.05 1013.58 1013.78 1013.61 1013.09 1012.29 1011.36 1010.43 1009.65 1009.14 1008.94 1009.05 1009.38 1009.84 1010.31 1010.71 1010.98 1011.12 1011.16 1011.16 1011.19 1011.30 1011.50 1011.77 1012.07 1012.35 1012.57 1012.71 1012.77 1012.80 1012.83 1012.93 1013.10 1013.35 1013.66 1013.98 1014.26 1014.47 1014.59 1014.62 1014.60 1014.56 1014.55 1014.59 1014.67 1014.78 1014.90 1014.98 1015.03
1013.05 1013.39 1013.40 1013.08 1012.46 1011.65 1010.74 1009.90 1009.23 1008.83 1008.72 1008.88 1009.24 1009.70 1010.17 1010.56 1010.84 1011.01 1011.10 1011.16 1011.25 1011.41 1011.63 1011.89 1012.17 1012.40 1012.56 1012.63 1012.65 1012.64 1012.65 1012.73 1012.90 1013.15 1013.46 1013.79 1014.07 1014.28 1014.40 1014.44 1014.41 1014.37 1014.34 1014.35 1014.40 1014.48 1014.56 1014.62 1014.64
1012.96 1013.11 1012.96 1012.51 1011.83 1011.01 1010.15 1009.38 1008.79 1008.46 1008.41 1008.59 1008.95 1009.40 1009.85 1010.25 1010.55 1010.76 1010.91 1011.05 1011.21 1011.42 1011.67 1011.94 1012.20 1012.41 1012.53 1012.57 1012.56 1012.52 1012.52 1012.58 1012.74 1012.98 1013.27 1013.58 1013.85 1014.05 1014.16 1014.18 1014.15 1014.09 1014.05 1014.03 1014.06 1014.12 1014.18 1014.23 1014.23
1012.86 1012.84 1012.55 1012.02 1011.29 1010.48 1009.66 1008.96 1008.43 1008.15 1008.11 1008.29 1008.62 1009.03 1009.46 1009.85 1010.17 1010.43 1010.65 1010.85 1011.08 1011.34 1011.62 1011.91 1012.17 1012.36 1012.47 1012.50 1012.48 1012.44 1012.42 1012.47 1012.61 1012.82 1013.08 1013.35 1013.59 1013.76 1013.85 1013.85 1013.81 1013.74 1013.68 1013.66 1013.67 1013.72 1013.77 1013.82 1013.83
1012.82 1012.67 1012.28 1011.68 1010.95 1010.16 1009.40 1008.75 1008.27 1008.00 1007.95 1008.09 1008.37 1008.74 1009.13 1009.50 1009.83 1010.12 1010.38 1010.63 1010.90 1011.19 1011.49 1011.79 1012.05 1012.24 1012.36 1012.40 1012.39 1012.37 1012.35 1012.39 1012.50 1012.67 1012.88 1013.09 1013.27 1013.40 1013.46 1013.45 1013.39 1013.31 1013.25 1013.23 1013.24 1013.28 1013.35 1013.40 1013.43
1012.89 1012.65 1012.19 1011.58 1010.87 1010.14 1009.44 1008.84 1008.39 1008.13 1008.04 1008.13 1008.34 1008.63 1008.97 1009.31 1009.62 1009.91 1010.19 1010.45 1010.73 1011.02 1011.31 1011.60 1011.86 1012.06 1012.20 1012.27 1012.29 1012.29 1012.29 1012.32 1012.39 1012.50 1012.64 1012.78 1012.90 1012.97 1012.99 1012.95 1012.89 1012.81 1012.76 1012.74 1012.76 1012.81 1012.89 1012.97 1013.03
1013.09 1012.78 1012.31 1011.73 1011.08 1010.42 1009.80 1009.26 1008.84 1008.56 1008.43 1008.45 1008.58 1008.79 1009.06 1009.34 1009.62 1009.88 1010.13 1010.36 1010.61 1010.86 1011.11 1011.37 1011.62 1011.83 1011.99 1012.10 1012.17 1012.20 1012.21 1012.23 1012.26 1012.31 1012.36 1012.42 1012.46 1012.47 1012.45 1012.40 1012.33 1012.26 1012.21 1012.20 1012.23 1012.31 1012.40 1012.50 1012.58
1013.36 1013.04 1012.60 1012.08 1011.53 1010.98 1010.45 1009.97 1009.57 1009.28 1009.10 1009.04 1009.08 1009.21 1009.39 1009.60 1009.82 1010.03 1010.22 1010.39 1010.56 1010.74 1010.93 1011.14 1011.36 1011.57 1011.76 1011.92 1012.03 1012.10 1012.13 1012.13 1012.12 1012.09 1012.06 1012.03 1011.99 1011.93 1011.87 1011.79 1011.72 1011.66 1011.62 1011.63 1011.67 1011.75 1011.85 1011.97 1012.07
1013.65 1013.35 1012.99 1012.59 1012.17 1011.74 1011.31 1010.89 1010.52 1010.20 1009.96 1009.81 1009.76 1009.80 1009.90 1010.03 1010.18 1010.31 1010.42 1010.51 1010.59 1010.68 1010.79 1010.94 1011.12 1011.33 1011.54 1011.74 1011.89 1012.00 1012.04 1012.03 1011.97 1011.87 1011.75 1011.63 1011.51 1011.39 1011.28 1011.19 1011.11 1011.05 1011.02 1011.02 1011.07 1011.14 1011.25 1011.37 1011.49
1013.87 1013.65 1013.41 1013.16 1012.89 1012.60 1012.28 1011.92 1011.55 1011.20 1010.89 1010.65 1010.50 1010.44 1010.46 1010.52 1010.59 1010.65 1010.68 1010.69 1010.67 1010.67 1010.70 1010.78 1010.92 1011.12 1011.34 1011.57 1011.77 1011.90 1011.96 1011.93 1011.83 1011.66 1011.47 1011.26 1011.07 1010.89 1010.74 1010.62 1010.53 1010.46 1010.43 1010.42 1010.45 1010.51 1010.60 1010.71 1010.83
1013.98 1013.89 1013.81 1013.73 1013.64 1013.49 1013.26 1012.95 1012.57 1012.16 1011.77 1011.43 1011.18 1011.02 1010.96 1010.95 1010.96 1010.96 1010.93 1010.86 1010.77 1010.68 1010.63 1010.65 1010.76 1010.94 1011.18 1011.43 1011.66 1011.82 1011.89 1011.85 1011.71 1011.50 1011.24 1010.97 1010.71 1010.48 1010.28 1010.14 1010.02 1009.94 1009.88 1009.85 1009.85 1009.87 1009.93 1010.02 1010.13
1013.98 1014.05 1014.16 1014.28 1014.36 1014.34 1014.19 1013.91 1013.49 1013.00 1012.50 1012.05 1011.69 1011.44 1011.30 1011.24 1011.21 1011.18 1011.10 1010.99 1010.84 1010.70 1010.59 1010.56 1010.63 1010.79 1011.03 1011.30 1011.55 1011.74 1011.82 1011.79 1011.64 1011.40 1011.10 1010.77 1010.46 1010.19 1009.95 1009.77 1009.62 1009.50 1009.41 1009.33 1009.28 1009.26 1009.28 1009.34 1009.43
1013.90 1014.16 1014.48 1014.80 1015.05 1015.15 1015.06 1014.76 1014.29 1013.70 1013.07 1012.49 1012.02 1011.67 1011.47 1011.36 1011.31 1011.26 1011.17 1011.04 1010.87 1010.69 1010.54 1010.47 1010.51 1010.66 1010.89 1011.17 1011.45 1011.65 1011.76 1011.75 1011.60 1011.35 1011.04 1010.69 1010.35 1010.04 1009.76 1009.53 1009.33 1009.16 1009.01 1008.88 1008.77 1008.70 1008.67 1008.70 1008.78
1013.84 1014.30 1014.83 1015.34 1015.73 1015.93 1015.86 1015.53 1014.98 1014.27 1013.51 1012.80 1012.20 1011.77 1011.50 1011.35 1011.29 1011.24 1011.16 1011.03 1010.85 1010.66 1010.49 1010.39 1010.40 1010.53 1010.75 1011.03 1011.31 1011.54 1011.68 1011.70 1011.58 1011.36 1011.05 1010.70 1010.34 1010.00 1009.68 1009.40 1009.14 1008.90 1008.68 1008.47 1008.30 1008.17 1008.10 1008.11 1008.18
1013.87 1014.53 1015.25 1015.92 1016.43 1016.69 1016.64 1016.27 1015.63 1014.80 1013.91 1013.07 1012.36 1011.84 1011.50 1011.32 1011.24 1011.20 1011.13 1011.01 1010.83 1010.62 1010.44 1010.31 1010.29 1010.39 1010.58 1010.85 1011.14 1011.39 1011.56 1011.62 1011.55 1011.37 1011.09 1010.76 1010.40 1010.03 1009.67 1009.33 1008.99 1008.67 1008.36 1008.08 1007.85 1007.67 1007.57 1007.55 1007.62
1014.06 1014.87 1015.75 1016.56 1017.16 1017.47 1017.41 1017.00 1016.28 1015.35 1014.35 1013.40 1012.60 1011.99 1011.60 1011.38 1011.28 1011.23 1011.16 1011.04 1010.86 1010.64 1010.43 1010.27 1010.20 1010.25 1010.41 1010.65 1010.93 1011.19 1011.39 1011.49 1011.47 1011.34 1011.11 1010.81 1010.45 1010.07 1009.66 1009.25 1008.84 1008.42 1008.03 1007.67 1007.37 1007.15 1007.03 1007.01 1007.09
1014.40 1015.34 1016.33 1017.22 1017.89 1018.22 1018.17 1017.73 1016.97 1015.98 1014.91 1013.89 1013.01 1012.34 1011.89 1011.62 1011.49 1011.41 1011.32 1011.19 1010.99 1010.74 1010.49 1010.29 1010.17 1010.16 1010.26 1010.45 1010.70 1010.95 1011.17 1011.30 1011.33 1011.25 1011.07 1010.79 1010.44 1010.04 1009.59 1009.11 1008.61 1008.12 1007.64 1007.21 1006.86 1006.60 1006.47 1006.46 1006.57
1014.87 1015.87 1016.91 1017.85 1018.55 1018.91 1018.87 1018.43 1017.67 1016.67 1015.59 1014.54 1013.63 1012.92 1012.42 1012.11 1011.93 1011.81 1011.68 1011.50 1011.26 1010.97 1010.67 1010.40 1010.21 1010.13 1010.15 1010.28 1010.47 1010.69 1010.89 1011.04 1011.10 1011.06 1010.91 1010.66 1010.32 1009.90 1009.41 1008.87 1008.30 1007.72 1007.18 1006.69 1006.30 1006.03 1005.90 1005.91 1006.05
1015.36 1016.37 1017.42 1018.36 1019.07 1019.45 1019.44 1019.05 1018.33 1017.39 1016.35 1015.34 1014.44 1013.72 1013.19 1012.83 1012.59 1012.41 1012.22 1011.98 1011.69 1011.34 1010.98 1010.64 1010.37 1010.19 1010.12 1010.16 1010.27 1010.42 1010.58 1010.71 1010.78 1010.75 1010.63 1010.40 1010.07 1009.63 1009.12 1008.53 1007.90 1007.27 1006.67 1006.14 1005.72 1005.45 1005.33 1005.37 1005.55
1015.80 1016.76 1017.76 1018.67 1019.37 1019.77 1019.81 1019.50 1018.88 1018.05 1017.12 1016.18 1015.34 1014.64 1014.10 1013.70 1013.41 1013.16 1012.90 1012.60 1012.24 1011.83 1011.41 1010.99 1010.63 1010.36 1010.18 1010.11 1010.11 1010.17 1010.26 1010.34 1010.38 1010.35 1010.23 1010.01 1009.69 1009.26 1008.73 1008.12 1007.46 1006.80 1006.17 1005.63 1005.21 1004.94 1004.84 1004.91 1005.13
1016.10 1016.98 1017.90 1018.74 1019.41 1019.83 1019.93 1019.73 1019.25 1018.57 1017.78 1016.98 1016.22 1015.57 1015.04 1014.62 1014.27 1013.95 1013.63 1013.26 1012.85 1012.39 1011.91 1011.43 1010.99 1010.62 1010.33 1010.13 1010.01 1009.96 1009.94 1009.94 1009.93 1009.87 1009.75 1009.54 1009.23 1008.82 1008.31 1007.71 1007.06 1006.40 1005.78 1005.24 1004.83 1004.58 1004.51 1004.61 1004.85
1016.25 1017.03 1017.84 1018.61 1019.24 1019.66 1019.83 1019.74 1019.42 1018.91 1018.28 1017.62 1016.98 1016.39 1015.88 1015.44 1015.05 1014.68 1014.30 1013.89 1013.43 1012.94 1012.42 1011.89 1011.39 1010.93 1010.54 1010.21 1009.96 1009.77 1009.63 1009.53 1009.45 1009.35 1009.22 1009.03 1008.76 1008.39 1007.92 1007.38 1006.77 1006.15 1005.57 1005.06 1004.68 1004.45 1004.40 1004.51 1004.76
Thickness
5837 5836 5832 5823 5806 5790 5790 5804 5815 5819 5826 5838 5842 5836 5827 5820 5814 5812 5830 5838 5835 5830 5824 5820 5815 5810 5806 5802 5799 5796 5793 5791 5789 5787 5786 5784 5782 5780 5778 5776 5774 5772 5770 5769 5767 5765 5763 5761 5759
5839 5836 5827 5815 5796 5777 5788 5811 5816 5824 5835 5842 5842 5837 5829 5825 5831 5829 5832 5835 5834 5830 5824 5820 5815 5810 5806 5802 5798 5795 5793 5791 5788 5787 5785 5783 5782 5780 5778 5776 5774 5772 5770 5768 5766 5765 5763 5761 5759
5840 5837 5819 5806 5793 5784 5796 5817 5824 5835 5844 5842 5837 5837 5832 5828 5832 5833 5837 5836 5832 5828 5823 5819 5814 5809 5805 5801 5798 5795 5792 5790 5788 5786 5784 5782 5781 5779 5777 5775 5773 5771 5770 5768 5766 5764 5763 5761 5759
5836 5825 5815 5799 5794 5803 5812 5826 5833 5835 5842 5846 5839 5830 5835 5842 5841 5841 5840 5837 5831 5826 5822 5818 5813 5808 5804 5800 5797 5794 5792 5790 5788 5786 5783 5781 5780 5778 5776 5774 5772 5770 5769 5767 5766 5764 5762 5761 5759
5831 5814 5797 5786 5794 5811 5827 5837 5840 5835 5836 5841 5839 5828 5828 5839 5846 5843 5839 5836 5830 5825 5821 5817 5812 5807 5803 5800 5797 5794 5791 5789 5787 5784 5782 5780 5778 5776 5775 5773 5771 5770 5768 5767 5765 5763 5762 5760 5758
5813 5802 5781 5778 5794 5815 5831 5841 5842 5838 5837 5840 5837 5827 5826 5837 5840 5839 5839 5835 5831 5825 5820 5815 5811 5807 5802 5799 5796 5793 5791 5788 5786 5783 5781 5779 5777 5775 5774 5772 5770 5769 5767 5765 5764 5762 5760 5759 5757
5803 5789 5782 5787 5791 5806 5829 5842 5840 5837 5836 5839 5840 5825 5825 5833 5837 5839 5836 5832 5827 5823 5819 5814 5810 5806 5802 5798 5795 5792 5790 5787 5784 5782 5780 5778 5776 5774 5773 5771 5769 5768 5766 5765 5763 5761 5760 5758 5756
5809 5791 5785 5784 5790 5804 5830 5839 5844 5842 5840 5851 5846 5826 5824 5834 5837 5834 5830 5826 5822 5819 5816 5813 5810 5806 5802 5799 5795 5792 5789 5787 5784 5782 5779 5777 5775 5773 5772 5770 5768 5767 5766 5764 5762 5761 5759 5758 5756
5811 5781 5774 5787 5795 5809 5829 5831 5841 5852 5847 5848 5849 5844 5845 5843 5836 5828 5822 5818 5815 5814 5813 5811 5808 5805 5802 5798 5795 5792 5789 5787 5784 5782 5779 5777 5775 5772 5771 5769 5767 5766 5765 5764 5762 5760 5759 5757 5756
5796 5774 5785 5805 5814 5818 5825 5829 5835 5838 5835 5837 5840 5843 5845 5839 5830 5823 5818 5814 5811 5810 5809 5807 5804 5801 5798 5795 5793 5791 5789 5786 5784 5782 5779 5777 5774 5772 5769 5767 5766 5765 5764 5763 5762 5760 5758 5757 5755
5796 5787 5800 5813 5822 5823 5822 5829 5837 5831 5824 5834 5836 5835 5836 5832 5826 5821 5817 5815 5812 5809 5805 5802 5799 5796 5792 5790 5787 5786 5784 5783 5782 5780 5777 5775 5772 5770 5767 5765 5764 5763 5762 5761 5760 5759 5758 5756 5755
5795 5799 5807 5815 5825 5824 5824 5828 5830 5830 5834 5849 5849 5843 5836 5828 5824 5821 5817 5813 5809 5803 5800 5797 5794 5791 5787 5784 5782 5780 5778 5777 5776 5775 5773 5770 5768 5766 5765 5763 5762 5760 5758 5758 5757 5757 5756 5755 5754
5795 5800 5810 5817 5819 5822 5824 5824 5827 5831 5843 5848 5845 5837 5832 5827 5823 5820 5817 5811 5805 5800 5796 5793 5790 5786 5783 5779 5776 5774 5772 5771 5770 5768 5767 5765 5763 5762 5761 5760 5759 5757 5755 5754 5754 5753 5752 5752 5751
5795 5800 5804 5809 5813 5820 5820 5823 5823 5829 5840 5839 5835 5829 5826 5821 5817 5813 5809 5805 5801 5797 5793 5790 5785 5782 5778 5775 5773 5770 5767 5765 5763 5762 5760 5759 5758 5757 5756 5755 5755 5754 5752 5751 5750 5749 5747 5746 5746
5793 5789 5795 5804 5808 5814 5817 5809 5814 5824 5831 5827 5825 5822 5819 5816 5813 5809 5806 5802 5799 5794 5790 5785 5782 5777 5773 5770 5768 5766 5763 5760 5758 5756 5754 5753 5751 5750 5750 5750 5751 5752 5749 5746 5745 5744 5742 5740 5739
5782 5774 5769 5787 5797 5805 5802 5786 5805 5816 5820 5815 5814 5813 5809 5807 5807 5806 5804 5800 5796 5790 5785 5781 5779 5774 5770 5767 5763 5761 5759 5756 5754 5752 5750 5749 5748 5746 5745 5745 5747 5749 5746 5744 5741 5739 5736 5734 5733
5754 5749 5756 5769 5789 5793 5788 5777 5793 5807 5810 5804 5804 5803 5800 5798 5798 5799 5798 5794 5790 5785 5780 5775 5772 5770 5766 5763 5759 5757 5754 5752 5751 5749 5747 5746 5745 5743 5742 5742 5745 5745 5743 5742 5740 5737 5734 5731 5729
5742 5745 5749 5756 5775 5778 5770 5769 5781 5793 5796 5793 5792 5791 5789 5787 5787 5790 5790 5788 5784 5780 5775 5770 5767 5765 5762 5758 5755 5751 5748 5747 5746 5744 5743 5742 5741 5740 5739 5740 5741 5740 5739 5739 5738 5735 5733 5731 5729
5748 5744 5743 5755 5772 5764 5758 5759 5767 5777 5779 5778 5778 5778 5778 5778 5781 5782 5782 5780 5776 5772 5767 5763 5761 5758 5754 5749 5746 5742 5739 5739 5738 5738 5737 5735 5734 5734 5733 5733 5734 5734 5733 5735 5734 5732 5730 5728 5726
5743 5739 5742 5752 5763 5758 5751 5750 5758 5764 5766 5767 5767 5768 5769 5769 5771 5772 5773 5772 5770 5766 5762 5756 5754 5751 5748 5744 5740 5736 5733 5731 5730 5730 5729 5728 5727 5726 5726 5725 5726 5727 5727 5728 5728 5726 5724 5724 5722
5741 5739 5742 5743 5749 5749 5745 5737 5745 5753 5757 5760 5761 5762 5762 5763 5762 5763 5763 5764 5763 5760 5757 5753 5749 5745 5742 5738 5733 5729 5724 5721 5719 5718 5718 5719 5718 5718 5719 5719 5719 5719 5720 5720 5721 5721 5718 5717 5718
5734 5749 5747 5742 5730 5720 5729 5709 5730 5738 5742 5748 5751 5753 5755 5757 5757 5756 5756 5756 5755 5754 5751 5747 5743 5739 5736 5732 5726 5720 5715 5710 5710 5708 5707 5708 5708 5709 5710 5711 5712 5712 5713 5714 5715 5716 5714 5712 5711
5745 5748 5740 5731 5724 5711 5713 5704 5711 5728 5730 5737 5743 5747 5749 5751 5751 5751 5752 5751 5749 5748 5744 5740 5737 5733 5730 5726 5721 5716 5711 5707 5705 5702 5700 5699 5699 5699 5700 5701 5703 5704 5706 5707 5708 5709 5708 5708 5708
5750 5735 5722 5709 5701 5691 5704 5699 5701 5715 5727 5734 5740 5744 5745 5746 5746 5745 5746 5744 5742 5741 5738 5734 5731 5728 5725 5721 5717 5712 5707 5703 5699 5695 5692 5691 5690 5689 5690 5691 5693 5695 5697 5699 5701 5703 5703 5703 5703
5735 5709 5684 5681 5673 5680 5698 5695 5698 5725 5732 5734 5736 5738 5739 5739 5737 5736 5736 5735 5735 5734 5732 5729 5726 5723 5720 5716 5712 5707 5703 5698 5693 5689 5686 5683 5682 5681 5681 5681 5683 5685 5688 5691 5694 5695 5697 5697 5697
5729 5711 5683 5672 5667 5675 5691 5691 5709 5724 5728 5730 5730 5728 5728 5726 5725 5725 5726 5726 5726 5727 5726 5723 5720 5717 5715 5711 5706 5702 5698 5693 5688 5684 5680 5677 5675 5673 5673 5673 5675 5677 5680 5683 5685 5687 5689 5690 5690
5721 5710 5706 5683 5678 5669 5677 5694 5708 5714 5713 5713 5713 5712 5710 5710 5711 5713 5715 5716 5717 5717 5716 5713 5711 5708 5706 5703 5699 5696 5692 5688 5683 5679 5675 5671 5669 5667 5667 5666 5668 5670 5672 5674 5676 5678 5680 5681 5681
5731 5709 5689 5677 5664 5659 5673 5677 5671 5682 5686 5690 5692 5692 5692 5695 5697 5699 5701 5702 5702 5702 5702 5700 5698 5696 5695 5693 5690 5688 5685 5682 5678 5673 5669 5666 5663 5661 5660 5660 5661 5663 5665 5667 5668 5670 5671 5672 5672
5718 5706 5686 5672 5668 5657 5653 5661 5675 5671 5672 5672 5675 5677 5677 5679 5680 5682 5684 5685 5687 5688 5687 5686 5686 5685 5684 5682 5681 5679 5677 5674 5671 5667 5664 5661 5658 5656 5655 5655 5655 5656 5658 5660 5661 5662 5663 5663 5663
5719 5710 5690 5677 5670 5658 5651 5652 5670 5667 5664 5664 5663 5666 5666 5666 5666 5667 5668 5670 5671 5671 5671 5671 5671 5671 5672 5672 5673 5672 5671 5668 5664 5661 5658 5655 5652 5651 5650 5649 5649 5650 5652 5653 5654 5656 5656 5656 5656